Time,TemperatureF,DewpointF,PressureIn,WindDirection,WindDirectionDegrees,WindSpeedMPH,WindSpeedGustMPH,Humidity,HourlyPrecipIn,Conditions,Clouds,dailyrainin,SoftwareType,DateUTC
2013-07-23 00:00:00,72.8,63.6,29.84,ENE,76,4.0,4.0,73,0.00,,,0.24,Wunderground v.1.15,2013-07-23 05:00:00,
2013-07-23 00:06:00,72.6,63.4,29.84,NE,53,4.0,6.0,73,0.00,,,0.00,Wunderground v.1.15,2013-07-23 05:06:00,
2013-07-23 00:11:00,72.6,63.4,29.84,NE,53,4.0,4.0,73,0.00,,,0.00,Wunderground v.1.15,2013-07-23 05:11:00,
2013-07-23 00:17:00,72.5,63.4,29.84,ENE,76,4.0,5.0,73,0.00,,,0.00,Wunderground v.1.15,2013-07-23 05:17:00,
2013-07-23 00:23:00,72.3,63.2,29.83,NE,56,5.0,5.0,73,0.00,,,0.00,Wunderground v.1.15,2013-07-23 05:23:00,
2013-07-23 00:28:00,72.3,63.5,29.83,ENE,78,4.0,6.0,74,0.00,,,0.00,Wunderground v.1.15,2013-07-23 05:28:00,
2013-07-23 00:34:00,72.2,63.4,29.83,East,79,4.0,10.0,74,0.00,,,0.00,Wunderground v.1.15,2013-07-23 05:34:00,
2013-07-23 00:40:00,72.1,63.4,29.83,East,82,3.0,3.0,74,0.00,,,0.00,Wunderground v.1.15,2013-07-23 05:40:00,
2013-07-23 00:46:00,71.7,63.4,29.83,East,82,2.0,10.0,75,0.00,,,0.00,Wunderground v.1.15,2013-07-23 05:46:00,
2013-07-23 00:51:00,71.3,63.3,29.83,East,82,2.0,10.0,76,0.00,,,0.00,Wunderground v.1.15,2013-07-23 05:51:00,
2013-07-23 00:57:00,71.0,63.0,29.83,East,82,0.0,4.0,77,0.00,,,0.00,weatherlink.com 1.10,2013-07-23 05:57:00,
2013-07-23 01:03:00,70.7,63.1,29.83,East,82,2.0,2.0,77,0.00,,,0.00,Wunderground v.1.15,2013-07-23 06:03:00,
2013-07-23 01:08:00,70.5,63.3,29.83,East,100,2.0,2.0,78,0.00,,,0.00,Wunderground v.1.15,2013-07-23 06:08:00,
2013-07-23 01:15:00,70.3,63.5,29.84,East,100,1.0,2.0,79,0.00,,,0.00,Wunderground v.1.15,2013-07-23 06:15:00,
2013-07-23 01:21:00,70.1,63.3,29.84,East,100,1.0,2.0,79,0.00,,,0.00,Wunderground v.1.15,2013-07-23 06:21:00,
2013-07-23 01:26:00,70.0,63.0,29.84,East,99,1.0,2.0,79,0.00,,,0.00,weatherlink.com 1.10,2013-07-23 06:26:00,
2013-07-23 01:32:00,69.8,63.0,29.84,East,88,1.0,3.0,79,0.00,,,0.00,Wunderground v.1.15,2013-07-23 06:32:00,
2013-07-23 01:38:00,69.5,63.1,29.83,East,83,2.0,8.0,80,0.00,,,0.00,Wunderground v.1.15,2013-07-23 06:38:00,
2013-07-23 01:43:00,69.4,63.0,29.84,ENE,66,3.0,8.0,80,0.00,,,0.00,Wunderground v.1.15,2013-07-23 06:43:00,
2013-07-23 01:49:00,69.5,62.7,29.84,NE,34,3.0,8.0,79,0.00,,,0.00,Wunderground v.1.15,2013-07-23 06:49:00,
2013-07-23 01:55:00,69.7,62.9,29.84,ENE,73,2.0,8.0,79,0.00,,,0.00,Wunderground v.1.15,2013-07-23 06:55:00,
2013-07-23 02:00:00,70.0,62.8,29.84,ENE,59,3.0,3.0,78,0.00,,,0.00,Wunderground v.1.15,2013-07-23 07:00:00,
2013-07-23 02:06:00,70.1,62.9,29.84,ENE,59,3.0,3.0,78,0.00,,,0.00,Wunderground v.1.15,2013-07-23 07:06:00,
2013-07-23 02:11:00,69.8,63.0,29.84,ENE,59,2.0,4.0,78,0.00,,,0.00,weatherlink.com 1.10,2013-07-23 07:11:00,
2013-07-23 02:16:00,69.6,62.8,29.84,ENE,59,1.0,3.0,79,0.00,,,0.00,Wunderground v.1.15,2013-07-23 07:16:00,
2013-07-23 02:22:00,69.3,62.5,29.83,ENE,61,1.0,1.0,79,0.00,,,0.00,Wunderground v.1.15,2013-07-23 07:22:00,
2013-07-23 02:28:00,69.0,62.6,29.83,ENE,61,1.0,2.0,80,0.00,,,0.00,Wunderground v.1.15,2013-07-23 07:28:00,
2013-07-23 02:36:00,68.7,62.6,29.84,ENE,59,1.0,5.0,81,0.00,,,0.00,Wunderground v.1.15,2013-07-23 07:36:00,
2013-07-23 02:42:00,68.5,63.0,29.83,NE,51,1.0,5.0,81,0.00,,,0.00,weatherlink.com 1.10,2013-07-23 07:42:00,
2013-07-23 02:47:00,68.5,62.4,29.84,NE,41,2.0,5.0,81,0.00,,,0.00,Wunderground v.1.15,2013-07-23 07:47:00,
2013-07-23 02:53:00,68.5,62.4,29.84,NE,56,2.0,5.0,81,0.00,,,0.00,Wunderground v.1.15,2013-07-23 07:53:00,
2013-07-23 02:59:00,68.4,62.7,29.84,NE,42,1.0,5.0,82,0.00,,,0.00,Wunderground v.1.15,2013-07-23 07:59:00,
2013-07-23 03:05:00,68.3,62.6,29.84,ENE,73,2.0,3.0,82,0.00,,,0.00,Wunderground v.1.15,2013-07-23 08:05:00,
2013-07-23 03:11:00,68.1,62.7,29.83,ENE,66,3.0,7.0,83,0.00,,,0.00,Wunderground v.1.15,2013-07-23 08:11:00,
2013-07-23 03:16:00,68.0,62.6,29.83,ENE,59,3.0,7.0,83,0.00,,,0.00,Wunderground v.1.15,2013-07-23 08:16:00,
2013-07-23 03:22:00,67.9,62.5,29.83,NE,44,3.0,4.0,83,0.00,,,0.00,Wunderground v.1.15,2013-07-23 08:22:00,
2013-07-23 03:27:00,67.8,63.0,29.83,ENE,65,0.0,7.0,83,0.00,,,0.00,weatherlink.com 1.10,2013-07-23 08:27:00,
2013-07-23 03:33:00,67.6,62.6,29.83,ENE,65,1.0,4.0,84,0.00,,,0.00,Wunderground v.1.15,2013-07-23 08:33:00,
2013-07-23 03:38:00,67.4,62.4,29.83,ENE,65,1.0,4.0,84,0.00,,,0.00,Wunderground v.1.15,2013-07-23 08:38:00,
2013-07-23 03:45:00,67.2,62.2,29.83,ENE,65,1.0,4.0,84,0.00,,,0.00,Wunderground v.1.15,2013-07-23 08:45:00,
2013-07-23 03:50:00,67.0,62.3,29.84,North,350,1.0,1.0,85,0.00,,,0.00,Wunderground v.1.15,2013-07-23 08:50:00,
2013-07-23 03:56:00,66.7,62.0,29.85,North,350,0.0,4.0,85,0.00,,,0.00,Wunderground v.1.15,2013-07-23 08:56:00,
2013-07-23 04:01:00,66.5,62.2,29.86,North,350,0.0,0.0,86,0.00,,,0.00,Wunderground v.1.15,2013-07-23 09:01:00,
2013-07-23 04:07:00,66.4,62.4,29.86,North,360,1.0,2.0,87,0.00,,,0.00,Wunderground v.1.15,2013-07-23 09:07:00,
2013-07-23 04:13:00,66.5,63.0,29.87,North,355,2.0,4.0,87,0.00,,,0.00,weatherlink.com 1.10,2013-07-23 09:13:00,
2013-07-23 04:19:00,66.6,62.6,29.87,NNW,340,2.0,2.0,87,0.00,,,0.00,Wunderground v.1.15,2013-07-23 09:19:00,
2013-07-23 04:25:00,66.6,62.6,29.88,NNE,24,2.0,3.0,87,0.00,,,0.00,Wunderground v.1.15,2013-07-23 09:25:00,
2013-07-23 04:31:00,66.7,63.0,29.88,NE,43,3.0,6.0,88,0.00,,,0.00,Wunderground v.1.15,2013-07-23 09:31:00,
2013-07-23 04:36:00,66.7,63.0,29.88,NE,49,4.0,8.0,88,0.00,,,0.00,Wunderground v.1.15,2013-07-23 09:36:00,
2013-07-23 04:42:00,66.8,63.0,29.88,NE,46,4.0,7.0,88,0.00,,,0.00,weatherlink.com 1.10,2013-07-23 09:42:00,
2013-07-23 04:48:00,66.8,63.1,29.89,ENE,60,5.0,8.0,88,0.00,,,0.00,Wunderground v.1.15,2013-07-23 09:48:00,
2013-07-23 04:53:00,66.9,62.9,29.89,NE,49,6.0,8.0,87,0.00,,,0.00,Wunderground v.1.15,2013-07-23 09:53:00,
2013-07-23 04:59:00,67.0,63.0,29.89,ENE,60,7.0,9.0,87,0.00,,,0.00,Wunderground v.1.15,2013-07-23 09:59:00,
2013-07-23 05:05:00,67.0,63.0,29.89,ENE,61,7.0,10.0,87,0.00,,,0.00,Wunderground v.1.15,2013-07-23 10:05:00,
2013-07-23 05:10:00,67.0,63.0,29.89,NE,53,6.0,6.0,87,0.00,,,0.00,Wunderground v.1.15,2013-07-23 10:10:00,
2013-07-23 05:17:00,67.0,63.0,29.89,East,79,7.0,11.0,87,0.00,,,0.00,Wunderground v.1.15,2013-07-23 10:17:00,
2013-07-23 05:23:00,67.0,63.0,29.90,ENE,59,7.0,8.0,87,0.00,,,0.00,Wunderground v.1.15,2013-07-23 10:23:00,
2013-07-23 05:29:00,67.0,63.0,29.91,NE,38,7.0,11.0,87,0.00,,,0.00,Wunderground v.1.15,2013-07-23 10:29:00,
2013-07-23 05:35:00,67.0,62.7,29.92,NNW,340,5.0,8.0,86,0.00,,,0.00,Wunderground v.1.15,2013-07-23 10:35:00,
2013-07-23 05:40:00,67.0,62.7,29.93,NNE,28,4.0,8.0,86,0.00,,,0.00,Wunderground v.1.15,2013-07-23 10:40:00,
2013-07-23 05:46:00,66.9,62.6,29.94,NNE,26,3.0,8.0,86,0.00,,,0.00,Wunderground v.1.15,2013-07-23 10:46:00,
2013-07-23 05:52:00,66.8,62.1,29.93,NNE,25,4.0,8.0,85,0.00,,,0.00,Wunderground v.1.15,2013-07-23 10:52:00,
2013-07-23 05:58:00,66.7,62.0,29.94,NNE,23,4.0,8.0,85,0.00,,,0.00,Wunderground v.1.15,2013-07-23 10:58:00,
2013-07-23 06:03:00,66.7,62.0,29.95,NNE,32,3.0,5.0,85,0.00,,,0.00,Wunderground v.1.15,2013-07-23 11:03:00,
2013-07-23 06:09:00,66.7,62.0,29.95,NNE,25,3.0,5.0,85,0.00,,,0.00,Wunderground v.1.15,2013-07-23 11:09:00,
2013-07-23 06:15:00,66.7,62.0,29.95,North,11,3.0,5.0,85,0.00,,,0.00,Wunderground v.1.15,2013-07-23 11:15:00,
2013-07-23 06:20:00,66.7,62.0,29.95,North,360,2.0,3.0,85,0.00,,,0.00,Wunderground v.1.15,2013-07-23 11:20:00,
2013-07-23 06:26:00,66.6,61.9,29.95,NNE,32,3.0,3.0,85,0.00,,,0.00,Wunderground v.1.15,2013-07-23 11:26:00,
2013-07-23 06:31:00,66.5,61.8,29.95,NE,35,3.0,13.0,85,0.00,,,0.00,Wunderground v.1.15,2013-07-23 11:31:00,
2013-07-23 06:37:00,66.4,61.8,29.95,NNE,28,3.0,13.0,85,0.00,,,0.00,Wunderground v.1.15,2013-07-23 11:37:00,
2013-07-23 06:42:00,66.3,61.7,29.94,NNE,28,2.0,13.0,85,0.00,,,0.00,Wunderground v.1.15,2013-07-23 11:42:00,
2013-07-23 06:47:00,66.1,61.5,29.94,North,5,1.0,13.0,85,0.00,,,0.00,Wunderground v.1.15,2013-07-23 11:47:00,
2013-07-23 06:53:00,66.0,61.4,29.95,NW,304,2.0,13.0,85,0.00,,,0.00,Wunderground v.1.15,2013-07-23 11:53:00,
2013-07-23 06:58:00,65.9,62.0,29.96,NW,304,3.0,4.0,86,0.01,,,0.01,weatherlink.com 1.10,2013-07-23 11:58:00,
2013-07-23 07:04:00,65.6,61.6,29.97,WNW,289,2.0,13.0,87,0.00,,,0.01,Wunderground v.1.15,2013-07-23 12:04:00,
2013-07-23 07:09:00,65.4,61.4,29.98,WNW,286,3.0,13.0,87,0.00,,,0.01,Wunderground v.1.15,2013-07-23 12:09:00,
2013-07-23 07:16:00,65.3,61.7,29.98,NW,304,5.0,13.0,88,0.00,,,0.01,Wunderground v.1.15,2013-07-23 12:16:00,
2013-07-23 07:22:00,65.1,61.8,29.99,WNW,285,7.0,13.0,89,0.00,,,0.02,Wunderground v.1.15,2013-07-23 12:22:00,
2013-07-23 07:28:00,64.9,62.0,30.00,WNW,291,9.0,12.0,89,0.02,,,0.02,weatherlink.com 1.10,2013-07-23 12:28:00,
2013-07-23 07:34:00,64.6,61.3,30.00,West,265,8.0,13.0,89,0.06,,,0.03,Wunderground v.1.15,2013-07-23 12:34:00,
2013-07-23 07:41:00,64.4,61.4,30.00,West,270,6.0,13.0,90,0.07,,,0.04,Wunderground v.1.15,2013-07-23 12:41:00,
2013-07-23 07:47:00,64.3,61.3,29.99,WSW,254,5.0,13.0,90,0.07,,,0.04,Wunderground v.1.15,2013-07-23 12:47:00,
2013-07-23 07:52:00,64.3,61.3,29.98,SW,226,4.0,13.0,90,0.05,,,0.04,Wunderground v.1.15,2013-07-23 12:52:00,
2013-07-23 07:57:00,64.3,61.6,29.98,SW,224,3.0,13.0,91,0.04,,,0.05,Wunderground v.1.15,2013-07-23 12:57:00,
2013-07-23 08:03:00,64.3,61.6,29.96,SW,221,4.0,13.0,91,0.04,,,0.05,Wunderground v.1.15,2013-07-23 13:03:00,
2013-07-23 08:09:00,64.3,61.6,29.95,South,188,3.0,13.0,91,0.06,,,0.06,Wunderground v.1.15,2013-07-23 13:09:00,
2013-07-23 08:14:00,64.3,61.6,29.95,South,188,2.0,13.0,91,0.06,,,0.06,Wunderground v.1.15,2013-07-23 13:14:00,
2013-07-23 08:21:00,64.4,61.7,29.94,SSE,159,2.0,13.0,91,0.04,,,0.06,Wunderground v.1.15,2013-07-23 13:21:00,
2013-07-23 08:27:00,64.4,62.0,29.92,SE,137,3.0,13.0,92,0.00,,,0.06,Wunderground v.1.15,2013-07-23 13:27:00,
2013-07-23 08:33:00,64.4,62.0,29.91,SSE,152,4.0,13.0,92,0.00,,,0.07,Wunderground v.1.15,2013-07-23 13:33:00,
2013-07-23 08:39:00,64.4,62.0,29.89,ESE,106,4.0,13.0,92,0.00,,,0.07,Wunderground v.1.15,2013-07-23 13:39:00,
2013-07-23 08:44:00,64.5,62.1,29.88,SE,146,4.0,13.0,92,0.00,,,0.07,Wunderground v.1.15,2013-07-23 13:44:00,
2013-07-23 08:50:00,64.7,62.3,29.89,SE,132,4.0,13.0,92,0.00,,,0.07,Wunderground v.1.15,2013-07-23 13:50:00,
2013-07-23 08:55:00,65.0,62.6,29.89,ESE,119,4.0,13.0,92,0.00,,,0.07,Wunderground v.1.15,2013-07-23 13:55:00,
2013-07-23 09:02:00,65.5,63.1,29.89,ESE,106,4.0,13.0,92,0.00,,,0.07,Wunderground v.1.15,2013-07-23 14:02:00,
2013-07-23 09:07:00,65.6,63.2,29.89,ENE,76,6.0,13.0,92,0.00,,,0.07,Wunderground v.1.15,2013-07-23 14:07:00,
2013-07-23 09:13:00,65.8,64.0,29.88,East,97,6.0,11.0,92,0.01,,,0.07,weatherlink.com 1.10,2013-07-23 14:13:00,
2013-07-23 09:18:00,65.9,63.5,29.88,East,101,7.0,13.0,92,0.00,,,0.07,Wunderground v.1.15,2013-07-23 14:18:00,
2013-07-23 09:24:00,66.2,63.8,29.87,SE,130,9.0,13.0,92,0.00,,,0.07,Wunderground v.1.15,2013-07-23 14:24:00,
2013-07-23 09:31:00,66.0,63.3,29.87,ESE,123,11.0,13.0,91,0.00,,,0.07,Wunderground v.1.15,2013-07-23 14:31:00,
2013-07-23 09:36:00,66.3,63.6,29.88,ESE,102,10.0,13.0,91,0.00,,,0.07,Wunderground v.1.15,2013-07-23 14:36:00,
2013-07-23 09:42:00,66.3,63.6,29.88,ENE,64,9.0,14.0,91,0.00,,,0.07,Wunderground v.1.15,2013-07-23 14:42:00,
2013-07-23 09:47:00,66.4,63.7,29.89,ENE,60,9.0,14.0,91,0.00,,,0.07,Wunderground v.1.15,2013-07-23 14:47:00,
2013-07-23 09:52:00,66.7,64.0,29.89,ENE,75,8.0,13.0,91,0.00,,,0.07,Wunderground v.1.15,2013-07-23 14:52:00,
2013-07-23 09:58:00,66.9,64.0,29.89,ENE,75,9.0,17.0,90,0.00,,,0.07,weatherlink.com 1.10,2013-07-23 14:58:00,
2013-07-23 10:04:00,66.9,63.6,29.89,ESE,108,9.0,11.0,89,0.00,,,0.07,Wunderground v.1.15,2013-07-23 15:04:00,
2013-07-23 10:10:00,67.1,63.4,29.89,ENE,77,9.0,9.0,88,0.00,,,0.07,Wunderground v.1.15,2013-07-23 15:10:00,
2013-07-23 10:16:00,67.1,63.1,29.90,ENE,78,9.0,10.0,87,0.00,,,0.07,Wunderground v.1.15,2013-07-23 15:16:00,
2013-07-23 10:21:00,67.5,63.5,29.89,ESE,108,8.0,10.0,87,0.00,,,0.07,Wunderground v.1.15,2013-07-23 15:21:00,
2013-07-23 10:27:00,68.4,63.4,29.89,ESE,115,8.0,10.0,84,0.00,,,0.07,Wunderground v.1.15,2013-07-23 15:27:00,
2013-07-23 10:32:00,69.2,63.1,29.90,East,79,8.0,18.0,81,0.00,,,0.07,Wunderground v.1.15,2013-07-23 15:32:00,
2013-07-23 10:38:00,69.5,63.1,29.91,NE,56,8.0,18.0,80,0.00,,,0.07,Wunderground v.1.15,2013-07-23 15:38:00,
2013-07-23 10:44:00,69.8,63.0,29.91,East,84,7.0,15.0,80,0.00,,,0.07,weatherlink.com 1.10,2013-07-23 15:44:00,
2013-07-23 10:51:00,71.5,63.9,29.92,ESE,114,8.0,18.0,77,0.00,,,0.07,Wunderground v.1.15,2013-07-23 15:51:00,
2013-07-23 10:57:00,72.2,64.6,29.92,ESE,110,8.0,18.0,77,0.00,,,0.07,Wunderground v.1.15,2013-07-23 15:57:00,
2013-07-23 11:02:00,73.1,65.5,29.91,ESE,119,8.0,18.0,77,0.00,,,0.07,Wunderground v.1.15,2013-07-23 16:02:00,
2013-07-23 11:07:00,73.9,65.5,29.91,East,82,7.0,18.0,75,0.00,,,0.07,Wunderground v.1.15,2013-07-23 16:07:00,
2013-07-23 11:13:00,73.7,65.3,29.91,ENE,74,9.0,18.0,75,0.00,,,0.07,Wunderground v.1.15,2013-07-23 16:13:00,
2013-07-23 11:18:00,73.9,63.9,29.91,ENE,62,9.0,18.0,71,0.00,,,0.07,Wunderground v.1.15,2013-07-23 16:18:00,
2013-07-23 11:24:00,74.4,64.8,29.91,East,97,8.0,18.0,72,0.00,,,0.07,Wunderground v.1.15,2013-07-23 16:24:00,
2013-07-23 11:30:00,75.3,65.6,29.91,ESE,113,7.0,18.0,72,0.00,,,0.07,Wunderground v.1.15,2013-07-23 16:30:00,
2013-07-23 11:36:00,75.6,64.3,29.92,East,82,7.0,18.0,68,0.00,,,0.07,Wunderground v.1.15,2013-07-23 16:36:00,
2013-07-23 11:41:00,76.0,65.1,29.92,East,88,8.0,9.0,69,0.00,,,0.07,Wunderground v.1.15,2013-07-23 16:41:00,
2013-07-23 11:47:00,75.8,64.1,29.92,ENE,77,8.0,18.0,67,0.00,,,0.07,Wunderground v.1.15,2013-07-23 16:47:00,
2013-07-23 11:53:00,75.8,65.3,29.92,ENE,69,8.0,18.0,70,0.00,,,0.07,Wunderground v.1.15,2013-07-23 16:53:00,
2013-07-23 11:59:00,76.0,64.0,29.92,ESE,108,4.0,13.0,67,0.00,,,0.07,weatherlink.com 1.10,2013-07-23 16:59:00,
2013-07-23 12:05:00,76.2,65.3,29.93,East,92,7.0,18.0,69,0.00,,,0.07,Wunderground v.1.15,2013-07-23 17:05:00,
2013-07-23 12:11:00,77.1,65.7,29.94,ESE,113,5.0,18.0,68,0.00,,,0.07,Wunderground v.1.15,2013-07-23 17:11:00,
2013-07-23 12:17:00,77.4,64.3,29.94,ESE,120,4.0,18.0,64,0.00,,,0.07,Wunderground v.1.15,2013-07-23 17:17:00,
2013-07-23 12:22:00,76.8,64.1,29.94,NE,40,4.0,18.0,65,0.00,,,0.07,Wunderground v.1.15,2013-07-23 17:22:00,
2013-07-23 12:28:00,76.1,63.9,29.94,ENE,65,4.0,18.0,66,0.00,,,0.07,Wunderground v.1.15,2013-07-23 17:28:00,
2013-07-23 12:34:00,76.1,65.2,29.94,East,94,3.0,18.0,69,0.00,,,0.07,Wunderground v.1.15,2013-07-23 17:34:00,
2013-07-23 12:40:00,76.2,64.9,29.94,SE,127,4.0,4.0,68,0.00,,,0.07,Wunderground v.1.15,2013-07-23 17:40:00,
2013-07-23 12:45:00,76.3,65.0,29.94,ESE,115,5.0,9.0,68,0.00,,,0.07,weatherlink.com 1.10,2013-07-23 17:45:00,
2013-07-23 12:51:00,76.2,64.4,29.93,ESE,121,4.0,18.0,67,0.00,,,0.07,Wunderground v.1.15,2013-07-23 17:51:00,
2013-07-23 12:57:00,76.0,65.5,29.94,ENE,74,4.0,18.0,70,0.00,,,0.07,Wunderground v.1.15,2013-07-23 17:57:00,
2013-07-23 13:02:00,76.2,65.7,29.95,ESE,112,4.0,5.0,70,0.00,,,0.07,Wunderground v.1.15,2013-07-23 18:02:00,
2013-07-23 13:09:00,76.3,65.4,29.95,SSE,149,3.0,5.0,69,0.00,,,0.07,Wunderground v.1.15,2013-07-23 18:09:00,
2013-07-23 13:16:00,76.4,65.9,29.95,East,83,3.0,5.0,70,0.00,,,0.07,Wunderground v.1.15,2013-07-23 18:16:00,
2013-07-23 13:21:00,76.5,65.1,29.95,ESE,123,3.0,5.0,68,0.00,,,0.07,Wunderground v.1.15,2013-07-23 18:21:00,
2013-07-23 13:26:00,76.6,65.7,29.95,SE,135,2.0,5.0,69,0.00,,,0.07,Wunderground v.1.15,2013-07-23 18:26:00,
2013-07-23 13:31:00,76.6,65.0,29.95,SSE,157,1.0,6.0,67,0.00,,,0.07,weatherlink.com 1.10,2013-07-23 18:31:00,
2013-07-23 13:37:00,77.3,67.2,29.94,ENE,72,3.0,10.0,71,0.00,,,0.07,Wunderground v.1.15,2013-07-23 18:37:00,
2013-07-23 13:42:00,78.1,66.2,29.94,ENE,68,5.0,10.0,67,0.00,,,0.07,Wunderground v.1.15,2013-07-23 18:42:00,
2013-07-23 13:47:00,78.5,66.2,29.93,ESE,109,6.0,11.0,66,0.00,,,0.07,Wunderground v.1.15,2013-07-23 18:47:00,
2013-07-23 13:53:00,78.2,66.3,29.94,ESE,121,6.0,10.0,67,0.00,,,0.07,Wunderground v.1.15,2013-07-23 18:53:00,
2013-07-23 13:58:00,77.9,65.2,29.94,ENE,67,6.0,10.0,65,0.00,,,0.07,Wunderground v.1.15,2013-07-23 18:58:00,
2013-07-23 14:03:00,78.1,66.0,29.94,ENE,63,4.0,10.0,67,0.00,,,0.07,weatherlink.com 1.10,2013-07-23 19:03:00,
2013-07-23 14:09:00,78.6,66.7,29.93,SE,126,5.0,9.0,67,0.00,,,0.07,Wunderground v.1.15,2013-07-23 19:09:00,
2013-07-23 14:15:00,79.5,68.0,29.93,East,86,3.0,11.0,67,0.00,,,0.07,weatherlink.com 1.10,2013-07-23 19:15:00,
2013-07-23 14:22:00,80.1,67.3,29.93,East,80,6.0,8.0,65,0.00,,,0.07,Wunderground v.1.15,2013-07-23 19:22:00,
2013-07-23 14:27:00,80.1,66.8,29.93,ESE,113,6.0,9.0,64,0.00,,,0.07,Wunderground v.1.15,2013-07-23 19:27:00,
2013-07-23 14:34:00,79.5,66.3,29.93,East,99,7.0,9.0,64,0.00,,,0.07,Wunderground v.1.15,2013-07-23 19:34:00,
2013-07-23 14:39:00,79.3,65.6,29.93,ENE,75,6.0,9.0,63,0.00,,,0.07,Wunderground v.1.15,2013-07-23 19:39:00,
2013-07-23 14:44:00,78.9,66.1,29.94,ESE,105,6.0,12.0,65,0.00,,,0.07,Wunderground v.1.15,2013-07-23 19:44:00,
2013-07-23 14:50:00,79.4,67.0,29.94,East,99,7.0,8.0,66,0.00,,,0.07,Wunderground v.1.15,2013-07-23 19:50:00,
2013-07-23 14:55:00,79.9,65.7,29.94,East,98,6.0,10.0,62,0.00,,,0.07,Wunderground v.1.15,2013-07-23 19:55:00,
2013-07-23 15:04:00,80.1,66.8,29.94,East,84,6.0,8.0,64,0.00,,,0.07,Wunderground v.1.15,2013-07-23 20:04:00,
2013-07-23 15:10:00,80.4,66.6,29.94,ESE,107,6.0,6.0,63,0.00,,,0.07,Wunderground v.1.15,2013-07-23 20:10:00,
2013-07-23 15:16:00,80.2,67.0,29.94,East,88,3.0,11.0,64,0.00,,,0.07,weatherlink.com 1.10,2013-07-23 20:16:00,
2013-07-23 15:22:00,80.7,66.5,29.94,NE,51,5.0,8.0,62,0.00,,,0.07,Wunderground v.1.15,2013-07-23 20:22:00,
2013-07-23 15:28:00,80.3,66.6,29.94,NE,41,5.0,8.0,63,0.00,,,0.07,Wunderground v.1.15,2013-07-23 20:28:00,
2013-07-23 15:34:00,80.2,67.4,29.95,East,87,5.0,8.0,65,0.00,,,0.07,Wunderground v.1.15,2013-07-23 20:34:00,
2013-07-23 15:39:00,80.4,66.2,29.95,ENE,78,5.0,8.0,62,0.00,,,0.07,Wunderground v.1.15,2013-07-23 20:39:00,
2013-07-23 15:45:00,80.9,68.0,29.95,East,88,3.0,9.0,64,0.00,,,0.07,weatherlink.com 1.10,2013-07-23 20:45:00,
2013-07-23 15:51:00,81.4,67.6,29.95,ENE,74,3.0,8.0,63,0.00,,,0.07,Wunderground v.1.15,2013-07-23 20:51:00,
2013-07-23 15:57:00,81.5,66.8,29.95,SE,140,4.0,8.0,61,0.00,,,0.07,Wunderground v.1.15,2013-07-23 20:57:00,
2013-07-23 16:02:00,81.1,65.9,29.95,East,88,5.0,7.0,60,0.00,,,0.07,Wunderground v.1.15,2013-07-23 21:02:00,
2013-07-23 16:08:00,81.2,66.5,29.95,SE,128,4.0,7.0,61,0.00,,,0.07,Wunderground v.1.15,2013-07-23 21:08:00,
2013-07-23 16:13:00,81.0,64.8,29.95,ESE,114,4.0,7.0,58,0.00,,,0.07,Wunderground v.1.15,2013-07-23 21:13:00,
2013-07-23 16:18:00,80.9,64.7,29.95,NE,53,3.0,7.0,58,0.00,,,0.07,Wunderground v.1.15,2013-07-23 21:18:00,
2013-07-23 16:24:00,80.8,65.1,29.94,ESE,116,5.0,10.0,59,0.00,,,0.07,Wunderground v.1.15,2013-07-23 21:24:00,
2013-07-23 16:29:00,80.8,65.6,29.94,ESE,115,5.0,10.0,60,0.00,,,0.07,Wunderground v.1.15,2013-07-23 21:29:00,
2013-07-23 16:35:00,80.9,65.7,29.94,East,93,4.0,11.0,60,0.00,,,0.07,Wunderground v.1.15,2013-07-23 21:35:00,
2013-07-23 16:41:00,81.0,64.3,29.94,East,82,4.0,11.0,57,0.00,,,0.07,Wunderground v.1.15,2013-07-23 21:41:00,
2013-07-23 16:47:00,80.7,65.0,29.94,ESE,115,5.0,11.0,59,0.00,,,0.07,Wunderground v.1.15,2013-07-23 21:47:00,
2013-07-23 16:52:00,80.5,65.3,29.94,East,97,5.0,11.0,60,0.00,,,0.07,Wunderground v.1.15,2013-07-23 21:52:00,
2013-07-23 16:57:00,80.6,64.5,29.94,ESE,122,4.0,11.0,58,0.00,,,0.07,Wunderground v.1.15,2013-07-23 21:57:00,
2013-07-23 17:03:00,80.6,64.5,29.94,ESE,107,4.0,7.0,58,0.00,,,0.07,Wunderground v.1.15,2013-07-23 22:03:00,
2013-07-23 17:09:00,80.7,65.5,29.94,ESE,112,4.0,7.0,60,0.00,,,0.07,Wunderground v.1.15,2013-07-23 22:09:00,
2013-07-23 17:15:00,80.7,64.1,29.94,East,82,3.0,5.0,57,0.00,,,0.07,Wunderground v.1.15,2013-07-23 22:15:00,
2013-07-23 17:21:00,80.7,65.0,29.94,ESE,121,3.0,5.0,59,0.00,,,0.07,Wunderground v.1.15,2013-07-23 22:21:00,
2013-07-23 17:27:00,80.4,65.2,29.94,ESE,110,4.0,5.0,60,0.00,,,0.07,Wunderground v.1.15,2013-07-23 22:27:00,
2013-07-23 17:33:00,80.0,63.9,29.94,ESE,118,4.0,10.0,58,0.00,,,0.07,Wunderground v.1.15,2013-07-23 22:33:00,
2013-07-23 17:39:00,79.8,64.7,29.94,SE,128,4.0,10.0,60,0.00,,,0.07,Wunderground v.1.15,2013-07-23 22:39:00,
2013-07-23 17:45:00,79.7,64.1,29.94,SE,138,3.0,10.0,59,0.00,,,0.07,Wunderground v.1.15,2013-07-23 22:45:00,
2013-07-23 17:51:00,79.7,64.6,29.94,ESE,102,2.0,3.0,60,0.00,,,0.07,Wunderground v.1.15,2013-07-23 22:51:00,
2013-07-23 17:58:00,79.9,65.2,29.94,ESE,111,3.0,10.0,61,0.00,,,0.07,Wunderground v.1.15,2013-07-23 22:58:00,
2013-07-23 18:03:00,79.9,64.8,29.94,ESE,117,3.0,5.0,60,0.00,,,0.07,Wunderground v.1.15,2013-07-23 23:03:00,
2013-07-23 18:09:00,79.7,65.5,29.94,SE,126,3.0,5.0,62,0.00,,,0.07,Wunderground v.1.15,2013-07-23 23:09:00,
2013-07-23 18:15:00,79.6,65.4,29.94,SE,141,2.0,5.0,62,0.00,,,0.07,Wunderground v.1.15,2013-07-23 23:15:00,
2013-07-23 18:20:00,79.7,65.1,29.93,ENE,78,3.0,5.0,61,0.00,,,0.07,Wunderground v.1.15,2013-07-23 23:20:00,
2013-07-23 18:26:00,79.6,65.0,29.94,East,88,4.0,5.0,61,0.00,,,0.07,Wunderground v.1.15,2013-07-23 23:26:00,
2013-07-23 18:32:00,79.5,64.4,29.94,ENE,72,3.0,8.0,60,0.00,,,0.07,Wunderground v.1.15,2013-07-23 23:32:00,
2013-07-23 18:38:00,79.6,65.4,29.94,ENE,63,3.0,8.0,62,0.00,,,0.07,Wunderground v.1.15,2013-07-23 23:38:00,
2013-07-23 18:43:00,79.5,65.3,29.94,ENE,78,3.0,8.0,62,0.00,,,0.07,Wunderground v.1.15,2013-07-23 23:43:00,
2013-07-23 18:49:00,79.4,64.8,29.94,ENE,67,3.0,8.0,61,0.00,,,0.07,Wunderground v.1.15,2013-07-23 23:49:00,
2013-07-23 18:54:00,79.2,65.1,29.94,East,96,4.0,8.0,62,0.00,,,0.07,Wunderground v.1.15,2013-07-23 23:54:00,
2013-07-23 19:00:00,79.2,65.1,29.94,ENE,77,3.0,3.0,62,0.00,,,0.07,Wunderground v.1.15,2013-07-24 00:00:00,
2013-07-23 19:06:00,79.1,65.4,29.94,East,80,3.0,3.0,63,0.00,,,0.07,Wunderground v.1.15,2013-07-24 00:06:00,
2013-07-23 19:12:00,78.9,64.8,29.94,East,84,3.0,3.0,62,0.00,,,0.07,Wunderground v.1.15,2013-07-24 00:12:00,
2013-07-23 19:19:00,78.6,64.9,29.94,East,80,3.0,5.0,63,0.00,,,0.07,Wunderground v.1.15,2013-07-24 00:19:00,
2013-07-23 19:24:00,78.2,65.0,29.94,ENE,71,3.0,5.0,64,0.00,,,0.07,Wunderground v.1.15,2013-07-24 00:24:00,
2013-07-23 19:30:00,77.9,64.7,29.94,ENE,74,3.0,3.0,64,0.00,,,0.07,Wunderground v.1.15,2013-07-24 00:30:00,
2013-07-23 19:35:00,77.6,64.5,29.94,East,82,3.0,10.0,64,0.00,,,0.07,Wunderground v.1.15,2013-07-24 00:35:00,
2013-07-23 19:41:00,77.3,65.1,29.94,ENE,77,3.0,10.0,66,0.00,,,0.07,Wunderground v.1.15,2013-07-24 00:41:00,
2013-07-23 19:46:00,76.9,65.0,29.94,ENE,76,1.0,4.0,67,0.00,,,0.07,weatherlink.com 1.10,2013-07-24 00:46:00,
2013-07-23 19:52:00,76.5,65.1,29.94,ENE,76,2.0,10.0,68,0.00,,,0.07,Wunderground v.1.15,2013-07-24 00:52:00,
2013-07-23 19:57:00,76.0,65.1,29.94,ENE,58,2.0,10.0,69,0.00,,,0.07,Wunderground v.1.15,2013-07-24 00:57:00,
2013-07-23 20:03:00,75.5,64.0,29.95,NE,38,2.0,5.0,68,0.00,,,0.07,weatherlink.com 1.10,2013-07-24 01:03:00,
2013-07-23 20:09:00,74.9,64.0,29.94,NE,43,3.0,4.0,69,0.00,,,0.07,Wunderground v.1.15,2013-07-24 01:09:00,
2013-07-23 20:14:00,74.6,64.2,29.94,NE,43,2.0,3.0,70,0.00,,,0.07,Wunderground v.1.15,2013-07-24 01:14:00,
2013-07-23 20:20:00,74.1,64.1,29.94,NE,41,2.0,3.0,71,0.00,,,0.07,Wunderground v.1.15,2013-07-24 01:20:00,
2013-07-23 20:25:00,73.8,64.2,29.94,SSE,155,2.0,3.0,72,0.00,,,0.07,Wunderground v.1.15,2013-07-24 01:25:00,
2013-07-23 20:31:00,73.5,64.0,29.94,WNW,288,1.0,3.0,72,0.00,,,0.07,weatherlink.com 1.10,2013-07-24 01:31:00,
2013-07-23 20:36:00,73.0,63.8,29.94,SW,225,2.0,7.0,73,0.00,,,0.07,Wunderground v.1.15,2013-07-24 01:36:00,
2013-07-23 20:42:00,72.5,63.4,29.94,ENE,65,2.0,7.0,73,0.00,,,0.07,Wunderground v.1.15,2013-07-24 01:42:00,
2013-07-23 20:48:00,72.2,64.0,29.95,ESE,119,1.0,4.0,74,0.00,,,0.07,weatherlink.com 1.10,2013-07-24 01:48:00,
2013-07-23 20:54:00,72.0,63.3,29.95,East,86,1.0,7.0,74,0.00,,,0.07,Wunderground v.1.15,2013-07-24 01:54:00,
2013-07-23 20:59:00,71.7,63.0,29.95,NW,317,0.0,7.0,74,0.00,,,0.07,Wunderground v.1.15,2013-07-24 01:59:00,
2013-07-23 21:05:00,71.4,62.7,29.95,NW,317,0.0,1.0,74,0.00,,,0.07,Wunderground v.1.15,2013-07-24 02:05:00,
2013-07-23 21:11:00,71.0,62.7,29.95,NW,317,1.0,1.0,75,0.00,,,0.07,Wunderground v.1.15,2013-07-24 02:11:00,
2013-07-23 21:16:00,70.8,63.0,29.96,NW,317,0.0,2.0,77,0.00,,,0.07,weatherlink.com 1.10,2013-07-24 02:16:00,
2013-07-23 21:22:00,70.4,63.6,29.96,NW,317,0.0,2.0,79,0.00,,,0.07,Wunderground v.1.15,2013-07-24 02:22:00,
2013-07-23 21:27:00,70.0,62.5,29.96,NNW,331,1.0,2.0,77,0.00,,,0.07,Wunderground v.1.15,2013-07-24 02:27:00,
2013-07-23 21:33:00,70.2,62.6,29.96,NNW,346,2.0,4.0,77,0.00,,,0.07,Wunderground v.1.15,2013-07-24 02:33:00,
2013-07-23 21:39:00,70.1,62.6,29.97,NNW,347,2.0,4.0,77,0.00,,,0.07,Wunderground v.1.15,2013-07-24 02:39:00,
2013-07-23 21:44:00,70.0,62.5,29.97,NNE,24,2.0,4.0,77,0.00,,,0.07,Wunderground v.1.15,2013-07-24 02:44:00,
2013-07-23 21:50:00,69.9,62.4,29.97,NNE,26,3.0,4.0,77,0.00,,,0.07,Wunderground v.1.15,2013-07-24 02:50:00,
2013-07-23 21:56:00,69.9,62.0,29.98,NE,47,3.0,6.0,76,0.00,,,0.07,Wunderground v.1.15,2013-07-24 02:56:00,
2013-07-23 22:01:00,69.9,62.0,29.97,NE,53,4.0,5.0,76,0.00,,,0.07,Wunderground v.1.15,2013-07-24 03:01:00,
2013-07-23 22:08:00,69.8,61.9,29.97,NE,53,4.0,5.0,76,0.00,,,0.07,Wunderground v.1.15,2013-07-24 03:08:00,
2013-07-23 22:14:00,69.5,61.6,29.97,NE,55,4.0,4.0,76,0.00,,,0.07,Wunderground v.1.15,2013-07-24 03:14:00,
2013-07-23 22:20:00,69.3,61.8,29.97,NE,56,3.0,3.0,77,0.00,,,0.07,Wunderground v.1.15,2013-07-24 03:20:00,
2013-07-23 22:26:00,69.1,61.6,29.98,NE,53,3.0,4.0,77,0.00,,,0.07,Wunderground v.1.15,2013-07-24 03:26:00,
2013-07-23 22:31:00,68.9,61.4,29.98,NE,53,3.0,3.0,77,0.00,,,0.07,Wunderground v.1.15,2013-07-24 03:31:00,
2013-07-23 22:37:00,68.6,61.1,29.98,NE,53,2.0,3.0,77,0.00,,,0.07,Wunderground v.1.15,2013-07-24 03:37:00,
2013-07-23 22:43:00,68.5,61.0,29.98,NE,55,3.0,5.0,77,0.00,,,0.07,Wunderground v.1.15,2013-07-24 03:43:00,
2013-07-23 22:48:00,68.5,61.0,29.97,NE,53,4.0,5.0,77,0.00,,,0.07,Wunderground v.1.15,2013-07-24 03:48:00,
2013-07-23 22:54:00,68.4,60.9,29.98,NE,46,4.0,5.0,77,0.00,,,0.07,Wunderground v.1.15,2013-07-24 03:54:00,
2013-07-23 23:01:00,68.3,60.8,29.98,NE,47,3.0,4.0,77,0.00,,,0.07,Wunderground v.1.15,2013-07-24 04:01:00,
2013-07-23 23:02:00,68.3,60.8,29.98,NE,44,3.0,4.0,77,0.00,,,0.07,Wunderground v.1.15,2013-07-24 04:02:00,
2013-07-23 23:03:00,68.3,61.0,29.98,NE,47,4.0,6.0,77,0.00,,,0.07,weatherlink.com 1.10,2013-07-24 04:03:00,
2013-07-23 23:07:00,68.4,60.9,29.98,NE,47,4.0,5.0,77,0.00,,,0.07,Wunderground v.1.15,2013-07-24 04:07:00,
2013-07-23 23:13:00,68.3,60.8,29.98,NE,55,4.0,5.0,77,0.00,,,0.07,Wunderground v.1.15,2013-07-24 04:13:00,
2013-07-23 23:19:00,68.2,60.7,29.98,NE,54,5.0,6.0,77,0.00,,,0.07,Wunderground v.1.15,2013-07-24 04:19:00,
2013-07-23 23:24:00,68.0,60.5,29.98,NE,53,4.0,5.0,77,0.00,,,0.07,Wunderground v.1.15,2013-07-24 04:24:00,
2013-07-23 23:30:00,67.9,60.4,29.98,ENE,57,4.0,4.0,77,0.00,,,0.07,Wunderground v.1.15,2013-07-24 04:30:00,
2013-07-23 23:35:00,67.6,60.5,29.98,NE,52,3.0,6.0,78,0.00,,,0.07,Wunderground v.1.15,2013-07-24 04:35:00,
2013-07-23 23:41:00,67.3,60.2,29.99,NE,40,3.0,6.0,78,0.00,,,0.07,Wunderground v.1.15,2013-07-24 04:41:00,
2013-07-23 23:47:00,67.1,60.0,29.99,ENE,62,2.0,6.0,79,0.00,,,0.07,weatherlink.com 1.10,2013-07-24 04:47:00,
2013-07-23 23:52:00,66.9,60.2,30.00,NE,56,3.0,6.0,79,0.00,,,0.07,Wunderground v.1.15,2013-07-24 04:52:00,
2013-07-23 23:58:00,66.7,60.0,30.00,NE,56,1.0,6.0,79,0.00,,,0.07,Wunderground v.1.15,2013-07-24 04:58:00,